Huanjing Jianzai 02-05

operational
NORAD ID: 54035 Int'l Des: 2022-132 Owner: ZZWYZ Country: CN
LEOCIRCULARRETROGRADESSO

Huanjing Jianzai 02-05について

説明を読み込み中...

リアルタイム位置

3D地球を読み込み中...

次回通過

高度履歴

Altitude vs Time

uPlot chart will show altitude changes over time

軌道要素

1 54035U 22132A 26061.21861598 .00011572 00000-0 52670-3 0 9991
2 54035 97.3823 67.6373 0021959 28.7860 331.4582 15.20641994188150
Epoch: Mar 2, 2026 • Age: 26 hours

現在のステータス

高度 504.0 km
速度 7.62 km/s
衛星直下点 66.26°N, 140.48°W
打ち上げ日 Oct 12, 2022
運用期間 3.3 years
タイプ other

技術仕様

分類 Payload
質量 510.00 kg
乾燥質量 510.00 kg
総質量 510.00 kg
長さ 1.40 m
直径 1.00 m
スパン 4.00 m
形状 Box + 2 Pan
製造者 DFHZ
バスタイプ CAST-2000
フェーズステータス In Orbit
所有者/国 ZZWYZ/CN

大規模コンステレーション

Loading constellations...